Location: Koszewko
(53.2876°N, 14.9061°E)
Time: 02:02:26
(UTC+00:00)

Meteor 1-18 Rocket - Pass Details

Date: 03 March 2021
Orbit: 836 x 909 km, 81.2° (Epoch: 11 April)

Event Time Altitude Azimuth Distance (km) Brightness Sun altitude
Rises 17:45:59 0° 345° (NNW) 3,551 7.7 -10.3°
Reaches altitude 10° 17:48:27 10° 345° (NNW) 2,608 7.0 -10.6°
Maximum altitude 17:54:25 82° 260° (W) 925 4.5 -11.5°
Drops below altitude 10° 18:00:20 10° 173° (S) 2,579 6.6 -12.4°
Sets 18:02:46 0° 172° (S) 3,509 7.3 -12.8°
